Dewpoint
59 58 57 55 54 51 50 49 49 49 50 50 49 47 45 46 48 47 47 45 45 46 46 46 47 47 46 45 46 44 44 43 43 43 44 46 45 45 45 46 45 46 44
59 58 57 56 54 54 51 50 50 49 49 50 49 47 46 44 47 48 48 47 46 47 48 46 47 45 47 48 47 48 49 48 47 46 45 43 43 45 44 45 44 43 44
59 58 56 56 54 54 51 51 51 50 49 49 49 47 47 46 45 48 48 48 48 48 47 47 47 46 49 46 47 48 50 49 48 46 44 43 41 42 42 44 44 44 42
59 58 56 55 54 53 52 50 50 50 50 49 48 48 47 47 45 46 47 48 49 47 48 47 47 48 47 47 49 50 51 48 45 42 41 40 40 41 43 42 41 43 41
58 58 57 56 55 54 52 51 50 50 49 49 49 49 48 45 42 47 47 47 48 47 47 46 46 47 51 53 52 49 46 42 42 38 38 39 40 41 41 41 41 41 41
58 58 57 56 54 52 51 50 49 50 49 49 49 48 46 44 45 46 47 46 46 46 46 45 47 50 49 46 46 44 44 43 41 41 40 40 41 40 42 41 41 40 39
58 58 57 56 54 53 51 51 49 49 50 49 49 49 48 48 46 46 47 46 46 45 45 48 49 45 42 38 42 42 42 44 43 43 41 41 40 42 43 43 42 41 40
57 57 57 55 54 53 51 50 51 51 51 51 50 50 50 49 46 45 46 48 45 46 48 49 48 43 39 40 40 40 40 41 42 42 43 42 43 43 44 44 44 43 41
57 57 57 55 54 53 52 51 52 52 51 51 51 50 48 48 45 44 45 45 47 48 47 47 45 40 39 41 40 40 40 41 41 43 44 43 43 44 45 46 43 42 41
57 57 57 56 55 54 54 53 53 53 52 52 51 50 48 48 44 45 46 50 49 48 42 45 42 39 37 40 41 41 40 41 41 42 43 43 43 44 44 45 43 43 43
58 57 57 57 56 56 55 55 54 54 53 52 52 51 49 48 49 43 44 50 49 45 40 39 39 39 39 38 40 41 40 41 41 42 42 42 42 42 42 44 45 45 44
58 58 58 57 57 57 55 55 54 53 52 52 52 51 50 49 46 43 43 43 43 41 40 41 42 40 38 38 39 39 39 41 43 43 43 41 40 40 41 42 45 45 46
57 58 58 58 58 57 55 54 53 53 53 52 51 50 49 50 48 44 42 40 40 39 39 40 38 38 38 39 39 39 41 42 42 41 42 41 41 41 44 44 45 45 44
56 57 58 58 57 57 56 55 54 53 53 52 50 49 48 49 46 39 38 39 40 36 37 36 38 39 40 39 40 43 43 43 43 43 41 40 40 40 41 43 43 43 41
56 56 57 58 56 55 54 53 54 54 53 52 51 50 47 47 45 38 34 33 34 35 36 36 36 37 39 38 39 40 41 40 41 39 38 37 37 38 38 39 38 39 38
55 55 57 56 56 55 48 46 41 45 45 44 42 46 46 43 37 35 33 34 34 35 35 35 35 36 36 37 38 38 39 39 38 38 38 37 37 33 29 28 29 33 32
55 55 57 55 54 50 50 49 49 42 40 39 39 40 39 36 35 35 34 34 34 35 36 35 34 32 33 36 37 37 37 37 39 38 36 35 29 25 26 26 27 27 26
55 50 56 55 53 52 51 52 51 48 45 37 35 35 35 35 34 34 34 34 35 36 34 33 31 32 33 36 36 36 35 36 36 33 30 27 26 26 25 25 26 28 28
54 54 56 55 53 51 50 49 48 44 40 33 32 34 35 35 35 34 34 35 35 33 31 30 31 32 33 32 32 32 35 34 31 27 25 25 25 25 25 27 29 29 30
54 47 50 54 50 50 49 47 44 40 34 31 32 33 34 35 35 37 36 36 34 31 31 30 31 31 31 31 32 32 30 28 25 24 25 26 26 26 27 29 29 29 29
54 55 49 51 50 49 48 45 42 35 33 33 33 34 32 35 35 33 31 31 31 31 31 31 30 29 31 32 29 26 26 25 26 26 27 27 27 27 28 30 30 31 31
54 55 53 51 51 50 47 45 42 36 35 34 33 34 31 34 32 30 30 31 31 31 31 31 29 31 30 26 25 27 28 27 27 27 27 27 27 28 29 30 31 34 35
54 55 54 53 52 47 46 43 41 38 36 33 34 34 32 31 30 30 30 31 30 30 30 31 33 31 29 27 29 28 26 26 28 29 28 29 29 29 30 30 32 35 36
54 55 55 53 50 49 47 45 40 34 32 33 33 31 30 30 30 30 29 31 33 35 35 34 32 29 27 30 30 27 28 29 30 30 30 30 30 31 31 32 34 36 37
52 55 54 51 49 49 47 40 35 32 32 31 30 29 30 29 28 28 31 33 31 31 31 31 31 30 30 31 29 28 30 30 31 31 32 32 32 33 32 34 34 36 38
54 54 51 50 49 46 40 35 33 32 31 29 29 29 28 28 28 31 32 31 30 30 30 30 30 30 29 29 29 30 30 30 31 31 31 32 33 34 33 33 34 35 36
Lifted_Index
-2 -1 -0 0 1 2 3 3 4 5 6 7 7 7 8 10 10 10 10 11 11 11 11 11 10 10 9 9 8 7 6 5 4 3 3 4 4 6 6 7 7 7 7
-2 -1 -1 -0 1 2 3 3 4 5 6 7 7 7 8 10 10 11 10 10 10 11 11 10 10 10 9 8 8 7 6 5 4 3 4 4 5 6 7 7 7 7 7
-2 -2 -1 -1 0 1 2 3 4 5 6 7 7 8 8 9 10 11 11 10 10 10 10 10 10 9 8 7 6 5 4 4 3 4 4 5 6 6 7 7 7 7 7
-2 -2 -2 -1 -0 1 2 3 4 5 6 7 8 8 9 9 10 10 11 10 10 10 10 10 9 8 7 6 5 4 4 3 4 4 5 6 7 6 6 6 6 6 6
-3 -2 -2 -1 -1 0 2 3 4 5 6 7 8 8 9 9 9 10 10 10 10 10 10 9 9 8 7 6 5 5 5 5 5 6 7 7 6 6 6 5 6 6 5
-3 -3 -2 -2 -1 -0 1 3 4 5 6 7 8 8 8 9 9 9 10 10 10 10 9 9 8 7 7 6 6 6 7 7 7 7 7 6 6 5 5 5 5 5 4
-3 -3 -3 -2 -2 -1 1 2 4 5 6 7 8 8 8 8 8 9 9 9 9 9 8 8 7 7 7 7 7 7 8 7 7 6 6 6 5 5 4 4 4 3 3
-3 -3 -3 -2 -2 -1 0 2 3 4 6 7 8 8 8 8 8 8 9 9 9 8 8 7 7 7 8 8 8 8 8 7 6 6 5 5 5 4 4 3 3 2 2
-3 -3 -3 -2 -2 -1 -0 1 2 4 5 6 7 7 7 7 8 8 8 8 8 8 7 7 7 7 8 8 8 8 7 6 6 6 5 5 4 4 4 3 3 2 2
-3 -3 -3 -2 -2 -1 -1 0 1 3 5 6 6 7 7 7 8 8 8 8 8 7 7 7 7 8 8 8 8 7 7 6 6 6 6 5 5 4 4 3 3 3 3
-2 -2 -2 -2 -2 -2 -1 -0 1 2 4 5 6 6 7 7 8 8 7 7 7 7 7 6 7 8 8 8 8 7 6 6 6 7 6 6 6 5 4 4 3 3 3
-0 -1 -1 -2 -2 -1 -1 -0 0 2 3 5 6 6 7 7 7 7 7 7 7 7 7 7 8 8 8 8 7 7 6 7 7 7 7 7 7 6 6 5 5 5 5
1 0 -0 -1 -1 -1 -1 -0 0 2 3 5 6 6 7 7 7 7 7 7 7 7 7 8 9 9 8 8 7 7 6 7 8 8 8 8 8 8 7 7 6 6 6
1 1 0 -0 -0 -0 -0 0 1 2 3 5 6 6 7 7 7 6 7 7 8 8 9 9 9 9 8 8 7 7 7 7 8 9 9 9 8 8 8 8 8 7 7
1 1 1 0 0 0 0 1 1 2 3 5 6 6 7 7 6 7 7 9 10 10 10 10 9 9 8 8 7 7 7 7 8 9 9 9 9 9 9 9 9 8 8
1 1 0 0 1 1 1 1 2 3 4 4 5 6 6 6 6 7 9 10 11 11 10 9 9 8 8 8 8 7 7 8 8 9 9 9 9 9 10 10 11 10 9
1 1 0 0 1 1 1 1 2 3 3 4 5 6 7 7 7 9 10 11 11 10 10 9 9 9 9 9 9 8 8 9 9 10 10 10 10 11 11 12 12 12 11
1 1 0 0 1 1 1 1 2 3 4 5 6 7 7 8 9 10 11 11 10 10 9 9 9 9 10 10 10 10 10 10 10 11 11 11 12 12 12 13 12 12 12
1 1 1 1 1 1 1 1 2 4 5 7 7 7 8 9 9 10 11 11 10 10 9 10 10 10 11 11 11 11 11 11 11 11 12 12 13 13 13 13 12 11 11
1 1 1 1 1 1 1 2 4 5 6 7 7 8 8 9 10 11 11 11 10 10 10 11 11 11 11 11 11 11 11 12 12 13 13 14 14 14 14 13 11 11 11
1 1 1 1 1 2 2 4 5 7 7 7 8 8 8 9 10 11 11 11 11 11 12 12 12 12 12 12 12 12 12 13 14 14 14 14 14 14 14 13 12 11 11
1 1 1 2 2 2 3 5 6 7 7 7 8 8 8 10 11 11 11 12 12 12 13 13 13 12 12 12 12 13 13 14 15 14 14 13 13 13 13 13 13 12 12
1 1 1 2 3 4 5 6 6 7 7 7 7 8 9 10 11 11 12 12 13 13 13 13 13 13 13 13 14 14 15 15 15 14 13 12 12 13 13 13 13 13 13
1 1 1 2 3 5 6 6 6 7 7 7 7 8 10 11 11 12 13 13 14 14 14 13 13 13 13 14 15 16 16 16 15 13 13 13 13 13 14 14 14 14 14
1 1 2 3 4 5 6 6 6 6 6 6 8 9 11 12 12 13 14 14 14 14 13 13 13 13 14 15 15 16 16 15 14 14 14 14 14 14 14 14 14 14 14
1 1 2 3 5 6 6 6 6 6 6 7 8 10 11 12 13 14 14 15 15 14 13 12 13 14 14 14 15 15 15 15 14 14 14 14 14 14 14 14 14 14 14